STARLINK-36676

Last updated on Wed Mar 25 2026 00:02:05 GMT+0000 (Coordinated Universal Time)

1 67912U 26036J 26083.50002314 -.01849418 00000+0 -57825-1 0 9990 2 67912 42.9997 161.6936 0001608 286.8268 169.0354 15.35834037 6029
UTC large
Height (km)
Speed (km/s)
/
Latitude / Longitude
Inclination (degrees)
Orbital Period (minutes)
Azimuth
Elevation
Range (km)
Doppler Factor

Next 0 passes for location: London (51.5072 / 0.1276)

Sorry there are no passes over London.